Location: Dehesa de la Cepeda
(40.6574°N, 4.3013°W)
Time: 19:49:25
(UTC+00:00)

Gblst 52 Del rocket - Pass Details

Date: 05 July 2020
Orbit: 805 x 1366 km, 51.5° (Epoch: 05 August)

Event Time Altitude Azimuth Distance (km) Brightness Sun altitude
Rises 22:57:05 0° 306° (NW) 3,398 8.2 -23.7°
Reaches altitude 10° 22:59:27 10° 307° (NW) 2,506 7.4 -23.8°
Maximum altitude 23:05:21 83° 36° (NE) 948 4.4 -24.2°
Enters shadow 23:07:28 45° 119° (ESE) 1,293 4.8 -24.3°
